When you browse on this site, cookies collect data to enhance your experience and personalize the content and advertising you see.
Visit our Privacy Policy to learn more. By continuing to use the site, you agree to this use of cookies and data.
  • In United Kingdom
  • List of Countries
  • For 7 days
  • Water Temperature
  • Weather Map
  • Weather Widgets
  • user-avatar
    Login

    Hourly Weather Aluksne

    Today, 18 August, Sunday

    Time Temperature Precipitation Wind Pressure Humidity
    00:00 +13°C° 0 mm 1 mps 743 mmHg 78%
    01:00 +12°C° 0 mm 1 mps 743 mmHg 80%
    02:00 +12°C° 0 mm 1 mps 743 mmHg 82%
    03:00 +11°C° 0 mm 1 mps 743 mmHg 84%
    04:00 +11°C° 0 mm 1 mps 743 mmHg 85%
    05:00 +11°C° 0 mm 1 mps 743 mmHg 87%
    06:00 +13°C° 0 mm 1 mps 743 mmHg 80%
    07:00 +15°C° 0 mm 1 mps 743 mmHg 73%
    08:00 +18°C° 0 mm 1 mps 743 mmHg 65%
    09:00 +20°C° 0 mm 1 mps 743 mmHg 59%
    10:00 +21°C° 0 mm 1 mps 743 mmHg 52%
    11:00 +23°C° 0 mm 1 mps 743 mmHg 45%
    12:00 +23°C° 0 mm 1 mps 742 mmHg 43%
    13:00 +24°C° 0 mm 1 mps 742 mmHg 41%
    14:00 +25°C° 0 mm 1 mps 742 mmHg 39%
    15:00 +24°C° 0 mm 1 mps 742 mmHg 42%
    16:00 +24°C° 0 mm 1 mps 742 mmHg 44%
    17:00 +24°C° 0 mm 1 mps 742 mmHg 47%
    18:00 +22°C° 0 mm 1 mps 742 mmHg 55%
    19:00 +19°C° 0 mm 1 mps 742 mmHg 63%
    20:00 +16°C° 0 mm 2 mps 741 mmHg 72%
    21:00 +16°C° 0 mm 2 mps 741 mmHg 73%
    22:00 +15°C° 0 mm 2 mps 741 mmHg 74%
    23:00 +15°C° 0 mm 2 mps 741 mmHg 75%

    Tomorrow, 19 August, Monday

    Time Temperature Precipitation Wind Pressure Humidity
    00:00 +14°C° 0 mm 2 mps 741 mmHg 76%
    01:00 +14°C° 0 mm 2 mps 741 mmHg 77%
    02:00 +14°C° 0 mm 2 mps 741 mmHg 78%
    03:00 +13°C° 0 mm 3 mps 740 mmHg 80%
    04:00 +13°C° 0 mm 3 mps 740 mmHg 82%
    05:00 +14°C° 0 mm 3 mps 740 mmHg 83%
    06:00 +14°C° 0 mm 3 mps 740 mmHg 83%
    07:00 +16°C° 0 mm 3 mps 740 mmHg 83%
    08:00 +17°C° 0 mm 3 mps 740 mmHg 82%
    09:00 +19°C° 0 mm 3 mps 740 mmHg 78%
    10:00 +21°C° 0 mm 3 mps 740 mmHg 73%
    11:00 +24°C° 0 mm 3 mps 740 mmHg 68%
    12:00 +24°C° 0.3 mm 3 mps 741 mmHg 71%
    13:00 +23°C° 0.3 mm 4 mps 741 mmHg 74%
    14:00 +23°C° 0.3 mm 4 mps 741 mmHg 76%
    15:00 +24°C° 0.3 mm 3 mps 741 mmHg 78%
    16:00 +22°C° 0.3 mm 3 mps 742 mmHg 80%
    17:00 +22°C° 0.3 mm 3 mps 742 mmHg 82%
    18:00 +20°C° 0 mm 3 mps 742 mmHg 84%
    19:00 +19°C° 0 mm 2 mps 743 mmHg 86%
    20:00 +17°C° 0 mm 2 mps 743 mmHg 89%
    21:00 +16°C° 0 mm 1 mps 743 mmHg 91%
    22:00 +16°C° 0 mm 1 mps 744 mmHg 92%
    23:00 +15°C° 0 mm 1 mps 744 mmHg 94%

    Day after tomorrow, 20 August, Tuesday

    Time Temperature Precipitation Wind Pressure Humidity
    00:00 +15°C° 0 mm 1 mps 744 mmHg 94%
    01:00 +15°C° 0 mm 1 mps 745 mmHg 95%
    02:00 +14°C° 0 mm 1 mps 745 mmHg 95%
    03:00 +14°C° 0 mm 1 mps 745 mmHg 96%
    04:00 +14°C° 0 mm 1 mps 746 mmHg 96%
    05:00 +13°C° 0 mm 1 mps 746 mmHg 96%
    06:00 +15°C° 0 mm 1 mps 746 mmHg 91%
    07:00 +16°C° 0 mm 1 mps 747 mmHg 87%
    08:00 +18°C° 0 mm 2 mps 747 mmHg 82%
    09:00 +19°C° 0 mm 2 mps 747 mmHg 71%
    10:00 +20°C° 0 mm 3 mps 747 mmHg 61%
    11:00 +22°C° 0 mm 3 mps 748 mmHg 50%
    12:00 +22°C° 0 mm 3 mps 748 mmHg 49%
    13:00 +24°C° 0 mm 3 mps 748 mmHg 47%
    14:00 +24°C° 0 mm 3 mps 748 mmHg 45%
    15:00 +24°C° 0 mm 3 mps 748 mmHg 48%
    16:00 +23°C° 0 mm 2 mps 748 mmHg 51%
    17:00 +23°C° 0 mm 2 mps 748 mmHg 54%
    18:00 +20°C° 0 mm 2 mps 748 mmHg 61%
    19:00 +19°C° 0 mm 1 mps 749 mmHg 68%
    20:00 +16°C° 0 mm 1 mps 749 mmHg 75%
    21:00 +16°C° 0 mm 1 mps 749 mmHg 75%
    22:00 +15°C° 0 mm 1 mps 749 mmHg 74%
    23:00 +14°C° 0 mm 0 mps 750 mmHg 74%

    21 August, Wednesday

    Time Temperature Precipitation Wind Pressure Humidity
    00:00 +14°C° 0 mm 1 mps 750 mmHg 77%
    01:00 +14°C° 0 mm 1 mps 750 mmHg 80%
    02:00 +13°C° 0 mm 1 mps 750 mmHg 83%
    03:00 +13°C° 0 mm 1 mps 750 mmHg 85%
    04:00 +13°C° 0 mm 1 mps 750 mmHg 87%
    05:00 +13°C° 0 mm 1 mps 750 mmHg 89%
    06:00 +14°C° 0 mm 1 mps 750 mmHg 83%
    07:00 +16°C° 0 mm 1 mps 750 mmHg 76%
    08:00 +19°C° 0 mm 1 mps 750 mmHg 70%
    09:00 +20°C° 0 mm 1 mps 750 mmHg 65%
    10:00 +22°C° 0 mm 1 mps 750 mmHg 60%
    11:00 +23°C° 0 mm 1 mps 750 mmHg 55%
    12:00 +21°C° 0.6 mm 2 mps 750 mmHg 63%
    13:00 +19°C° 0.6 mm 2 mps 750 mmHg 71%
    14:00 +18°C° 0.6 mm 2 mps 750 mmHg 79%
    15:00 +17°C° 0.9 mm 2 mps 749 mmHg 84%
    16:00 +16°C° 0.9 mm 2 mps 749 mmHg 89%
    17:00 +15°C° 0.9 mm 1 mps 749 mmHg 94%
    18:00 +15°C° 0.5 mm 1 mps 749 mmHg 95%
    19:00 +14°C° 0.5 mm 1 mps 749 mmHg 95%
    20:00 +14°C° 0.5 mm 1 mps 749 mmHg 95%
    21:00 +13°C° 0.3 mm 1 mps 749 mmHg 94%
    22:00 +13°C° 0.3 mm 1 mps 749 mmHg 93%
    23:00 +12°C° 0.3 mm 0 mps 748 mmHg 93%

    22 August, Thursday

    Time Temperature Precipitation Wind Pressure Humidity
    00:00 +12°C° 0 mm 1 mps 749 mmHg 94%
    01:00 +11°C° 0 mm 1 mps 749 mmHg 94%
    02:00 +10°C° 0 mm 2 mps 749 mmHg 95%
    03:00 +10°C° 0 mm 2 mps 749 mmHg 96%
    04:00 +10°C° 0 mm 2 mps 749 mmHg 97%
    05:00 +11°C° 0 mm 1 mps 749 mmHg 98%
    06:00 +12°C° 0 mm 2 mps 749 mmHg 96%
    07:00 +13°C° 0 mm 2 mps 749 mmHg 94%
    08:00 +14°C° 0 mm 2 mps 750 mmHg 92%
    09:00 +16°C° 0 mm 2 mps 750 mmHg 81%
    10:00 +18°C° 0 mm 2 mps 750 mmHg 69%
    11:00 +19°C° 0 mm 2 mps 750 mmHg 57%
    12:00 +20°C° 0 mm 2 mps 750 mmHg 54%
    13:00 +21°C° 0 mm 2 mps 750 mmHg 50%
    14:00 +21°C° 0 mm 2 mps 750 mmHg 47%
    15:00 +21°C° 0 mm 2 mps 750 mmHg 50%
    16:00 +21°C° 0 mm 2 mps 750 mmHg 52%
    17:00 +21°C° 0 mm 2 mps 750 mmHg 54%
    18:00 +19°C° 0 mm 2 mps 750 mmHg 63%
    19:00 +17°C° 0 mm 2 mps 750 mmHg 71%
    20:00 +14°C° 0 mm 2 mps 750 mmHg 80%
    21:00 +14°C° 0 mm 2 mps 750 mmHg 82%
    22:00 +13°C° 0 mm 1 mps 750 mmHg 85%
    23:00 +12°C° 0 mm 1 mps 751 mmHg 87%

    23 August, Friday

    Time Temperature Precipitation Wind Pressure Humidity
    00:00 +11°C° 0 mm 1 mps 751 mmHg 89%
    01:00 +11°C° 0 mm 1 mps 751 mmHg 91%
    02:00 +10°C° 0 mm 1 mps 751 mmHg 93%
    03:00 +10°C° 0 mm 1 mps 751 mmHg 93%
    04:00 +10°C° 0 mm 1 mps 751 mmHg 93%
    05:00 +10°C° 0 mm 1 mps 751 mmHg 93%
    06:00 +12°C° 0 mm 1 mps 751 mmHg 85%
    07:00 +14°C° 0 mm 1 mps 751 mmHg 78%
    08:00 +15°C° 0 mm 1 mps 751 mmHg 70%
    09:00 +18°C° 0 mm 1 mps 751 mmHg 66%
    10:00 +19°C° 0 mm 1 mps 751 mmHg 62%
    11:00 +19°C° 0 mm 2 mps 751 mmHg 58%
    12:00 +20°C° 0.1 mm 2 mps 751 mmHg 56%
    13:00 +20°C° 0.1 mm 2 mps 751 mmHg 54%
    14:00 +21°C° 0.1 mm 2 mps 750 mmHg 52%
    15:00 +20°C° 0.4 mm 2 mps 750 mmHg 61%
    16:00 +19°C° 0.4 mm 2 mps 750 mmHg 71%
    17:00 +18°C° 0.4 mm 2 mps 750 mmHg 80%
    18:00 +16°C° 0.1 mm 2 mps 750 mmHg 83%
    19:00 +15°C° 0.1 mm 1 mps 750 mmHg 87%
    20:00 +13°C° 0.1 mm 1 mps 750 mmHg 90%
    21:00 +13°C° 0 mm 1 mps 750 mmHg 92%
    22:00 +12°C° 0 mm 1 mps 750 mmHg 93%
    23:00 +11°C° 0 mm 1 mps 750 mmHg 95%
    Show more